Location: Tierra del Sol
(32.6128°N, 116.3319°W)
Time: 05:33:25
(UTC-08:00)

Tiangong 2 - Pass Details

Date: 16 October 2017
Orbit: 386 x 390 km, 42.8° (Epoch: 10 December)

Event Time Altitude Azimuth Distance (km) Brightness Sun altitude
Exits shadow 04:47:30 10° 29° (NNE) 1,395 4.3 -26.6°
Drops below altitude 10° 04:47:37 10° 32° (NNE) 1,420 4.4 -26.6°
Sets 04:50:33 0° 61° (ENE) 2,277 6.0 -25.9°
